Regional Weather Roundup
Issued by NWS State College, PA

Home | Current Version | Previous Version | Graphics & Text | Print | Product List | Glossary Off
Versions: 1 2 3 4 5 6 7 8 9 10 11 12 13 14 15 16 17 18 19 20 21 22 23 24 25 26 27 28 29 30 31 32 33 34 35 36 37 38 39 40 41 42 43 44 45 46 47 48 49 50

516
ASUS41 KCTP 221110
RWRCTP

REGIONAL WEATHER ROUNDUP
NATIONAL WEATHER SERVICE STATE COLLEGE PA
700 AM EDT SUN OCT 22 2017

Note: "fair" indicates few or no clouds below 12,000 feet with no
significant weather and/or obstructions to visibility.

* = STATION THAT DOES NOT REPORT PRECIPITATION /E.G. RAIN...SNOW...ETC/
    THUNDER OR FOG.

PAZ002>004-007>009-013>016-020>023-029>032-221200-
WESTERN PENNSYLVANIA

CITY           SKY/WX    TMP DP  RH WIND       PRES   REMARKS
ERIE           CLEAR     56  48  74 S12       30.26F
MEADVILLE      CLEAR     52  48  86 VRB3      30.29F
FRANKLIN*      CLEAR     47  44  90 E6        30.31F
NEW CASTLE     FOG       45  45 100 CALM      30.29F VSB 1/2
BEAVER COUNTY  NOT AVBL
BUTLER*        CLEAR     45  44  97 NE3       30.31R
PITTSBURGH INT PTCLDY    50  47  89 CALM      30.29S
PITTSBURGH     CLEAR     53  49  86 SE6       30.30R
INDIANA*       CLEAR     48  46  93 CALM      30.35S
LATROBE        CLEAR     48  48 100 CALM      30.32R
WASHINGTON CO* CLEAR     46  45  96 CALM      30.33R
$$

PAZ004>006-010>012-017>019-024>028-033>037-041-042-045-046-049>053-221200-
CENTRAL PENNSYLVANIA

CITY           SKY/WX    TMP DP  RH WIND       PRES   REMARKS
BRADFORD       CLOUDY    43  41  93 CALM      30.34S
DUBOIS         CLEAR     51  41  68 SE5       30.33S
CLEARFIELD     CLEAR     44  42  93 CALM      30.36R
JOHNSTOWN      CLEAR     56  47  71 S7        30.35R
ALTOONA        CLEAR     48  43  82 CALM      30.36R
STATE COLLEGE  PTCLDY    43  41  93 CALM      30.36R
WILLIAMSPORT   PTCLDY    44  42  93 CALM      30.38R
SELINSGROVE    PTCLDY    41  41 100 CALM      30.39S
FT INDIANTOWN  CLEAR     42  42 100 CALM      30.38S
CAPITAL CITY   CLEAR     47  43  86 CALM      30.38S
HARRISBURG     PTCLDY    47  45  93 E3        30.37S
YORK           NOT AVBL
$$

PAZ038>040-043-044-047-048-054-055-060>062-067>071-221200-
EASTERN PENNSYLVANIA

CITY           SKY/WX    TMP DP  RH WIND       PRES   REMARKS
SCRANTON       CLOUDY    47  42  83 CALM      30.39R
MOUNT POCONO   CLEAR     40  39  97 NW5       30.40R
ALLENTOWN      PTCLDY    44  40  85 CALM      30.40R
QUAKERTOWN*    SUNNY     39  39 100 CALM      30.40R
READING        CLEAR     44  44 100 CALM      30.39R
LANCASTER      CLEAR     45  44  97 CALM      30.38S
COATESVILLE    SUNNY     50  43  76 CALM      30.40R
POTTSTOWN      CLEAR     41  41 100 CALM      30.41R
BLUE BELL        N/A     39  39 100 CALM      30.41R
DOYLESTOWN     CLEAR     45  42  89 CALM      30.38R
WILLOW GROVE   NOT AVBL
NORTH PHILA    CLEAR     48  45  89 CALM      30.40R
PHILADELPHIA   FOG       53  51  93 CALM      30.39R VSB 1/4
$$




USA.gov is the U.S. government's official web portal to all federal, state and local government web resources and services.